Regional Weather Roundup
Issued by NWS

Home | Current Version | Previous Version | Text Only | Print | Product List | Glossary On
Versions: 1 2 3 4 5 6 7 8 9 10 11 12 13 14 15 16 17 18 19 20 21 22 23 24 25 26 27 28 29 30 31 32 33 34 35 36 37 38 39 40 41 42 43 44 45 46 47 48 49 50
596
ASUS46 KPQR 272310
RWROR

OREGON REGIONAL WEATHER ROUNDUP
NATIONAL WEATHER SERVICE PORTLAND OR
400 PM PDT FRI MAY 27 2016

NOTE: "FAIR" INDICATES FEW OR NO CLOUDS BELOW 12,000 FEET WITH
NO SIGNIFICANT WEATHER AND/OR OBSTRUCTIONS TO VISIBILITY.

ORZ001>013-280000-
NORTHWEST OREGON


CITY           SKY/WX    TMP DP  RH WIND       PRES   REMARKS
ASTORIA        CLOUDY    59  45  59 W10       30.21S
NEWPORT        MOSUNNY   59  48  67 NW12      30.25F
PORTLAND       PTSUNNY   60  45  57 NW3       30.18S
VANCOUVER WA   CLOUDY    60  45  57 W8        30.17F
SCAPPOOSE      PTSUNNY   59  48  67 E5        30.17F
HILLSBORO      PTSUNNY   61  43  51 N9        30.16F
AURORA         MOSUNNY   62  43  49 W9        30.18F
MCMINNVILLE    MOSUNNY   63  43  48 W7        30.17F
SALEM          PTSUNNY   63  41  44 W8        30.16F
CORVALLIS        N/A     63  43  48 NW10      30.18F
EUGENE         PTSUNNY   65  43  44 VRB5      30.18S
$$

ORZ021-028-280000-
SOUTHWEST OREGON


CITY           SKY/WX    TMP DP  RH WIND       PRES   REMARKS
NORTH BEND     SUNNY     63  48  59 N18G24    30.23S
BROOKINGS      SUNNY     63  46  54 NW16G24   30.09F
ROSEBURG       SUNNY     68  38  33 NE9G17    30.14F
SEXTON SUMMIT  SUNNY     56  36  47 VRB6      30.12F
MEDFORD        MOSUNNY   70  38  31 NW7       30.06F
$$

ORZ014>016-041-280000-
COLUMBIA GORGE


CITY           SKY/WX    TMP DP  RH WIND       PRES   REMARKS
TROUTDALE      CLOUDY    57  46  66 W5        30.18F
THE DALLES     MOSUNNY   67  37  33 W23G29    30.09S
$$

ORZ029>031-041-044-049-050-061>064-502-503-505>511-280000-
EASTERN OREGON


CITY           SKY/WX    TMP DP  RH WIND       PRES   REMARKS
REDMOND        SUNNY     63  27  25 NW15G23   30.05S
BEND           SUNNY     61  30  31 NW22      30.04F
PRINEVILLE     SUNNY     61  28  29 W10G21    30.05S
KLAMATH FALLS  SUNNY     63  29  27 NW9G18    30.04F
LAKEVIEW       SUNNY     64  28  25 SW10      30.03F
HERMISTON      PTSUNNY   71  33  24 W14G21    30.00F
PENDLETON      MOSUNNY   65  27  23 W15G29    30.02F
JOHN DAY         N/A    N/A N/A N/A MISG        N/A
MEACHAM        PTSUNNY   53  26  35 W9G16     30.04F
LA GRANDE      MOSUNNY   59  28  31 N15       30.01F
BAKER CITY     SUNNY     60  32  34 N16G29    30.00F
BURNS          SUNNY     63  12  13 NW18G25   30.01S
ROME             N/A     68  32  26 VRB5      29.96F
ONTARIO        SUNNY     72  28  19 N10       29.93F
$$




USA.gov is the U.S. government's official web portal to all federal, state and local government web resources and services.